Lemur-2 Krish

operational
NORAD ID: 64561 Int'l Des: 2025-135 Owner: SPIRE/MCON Country: US Constellation: spire
LEOCIRCULARRETROGRADESSO

About Lemur-2 Krish

Description loading...

Live Position

Loading 3D Globe...

Upcoming Passes

Altitude History

Altitude vs Time

uPlot chart will show altitude changes over time

Two-Line Element Set

1 64561U 25135AK 26061.09905321 .00007816 00000-0 72016-3 0 9993
2 64561 97.7610 176.8932 0001072 112.2491 247.8843 14.94972374 37916
Epoch: Mar 2, 2026 • Age: 29 hours

Current Status

Altitude 585.0 km
Velocity 7.57 km/s
Sub-Earth Point 1.85°N, 124.16°E
Launch Date Jun 23, 2025
Age 0.6 years
Type other

Technical Details

Classification Payload
Mass 10.00 kg
Dry Mass 10.00 kg
Total Mass 10.00 kg
Length 0.30 m
Diameter 0.20 m
Span 0.30 m
Shape Box
Manufacturer SPIREG
Bus Type Cubesat 6U
Phase Status In Orbit
Owner/State SPIRE/MCON/US

Large Constellations

Loading constellations...